Location: Augirein
(42.9320°N, 0.9181°E)
Time: 20:03:45
(UTC+00:00)

FALCON 9 DEB - Pass Details

Date: 20 June 2021
Orbit: 422 x 432 km, 53.0° (Epoch: 31 July)

Event Time Altitude Azimuth Distance (km) Brightness Sun altitude
Rises 01:30:14 0° 309° (NW) 2,392 7.1 -20.3°
Reaches altitude 10° 01:32:26 10° 316° (NW) 1,521 6.1 -20.2°
Maximum altitude 01:35:41 41° 29° (NNE) 626 4.4 -19.9°
Drops below altitude 10° 01:38:55 10° 102° (ESE) 1,509 6.0 -19.7°
Sets 01:41:05 0° 109° (ESE) 2,369 6.9 -19.5°
